AMOS 1 - Orbit

View from above orbital plane
View from above orbital plane
View from above satellite
View from above satellite

Ground track
Ground track

The orbit data is extracted from the following two-line orbital elements,

1 23865U 96030B   13138.57722872 -.00000138  00000-0  00000+0 0  9103
2 23865 004.2367 065.8326 0011686 033.9192 325.9533 00.97118568 62189
Epoch (UTC): 18 May 2013 13:51:12
Eccentricity: 0.0011686
inclination: 4.2367°
perigee height: 36643 km
apogee height: 36744 km
right ascension of ascending node: 65.8326°
argument of perigee: 33.9192°
revolutions per day: 0.97118568
mean anomaly at epoch: 325.9533°
orbit number at epoch: 6218

The dashed part of the orbit path shows where the satellite is in the earth's shadow,  

Developed and maintained by Chris Peat, Heavens-Above GmbH. Please read the updated FAQ before sending e-mail. Imprint. DLR